Chester, SC

10:56 PM EDT on April 27, 2017 (GMT -0400)
Chester

Weather History for KDCM - November, 2012

Change the Weather History Date:

Wednesday, November 14, 2012

  Actual Average (KUZA) Record (KUZA)
Temperature  
Mean Temperature 44 °F -  
Max Temperature 53 °F 61 °F 79 °F (1999)
Min Temperature 35 °F 39 °F 21 °F (2013)
Degree Days  
Heating Degree Days 21    
Moisture  
Dew Point 32 °F    
Average Humidity 63    
Maximum Humidity 87    
Minimum Humidity 41    
Precipitation  
Precipitation 0.00 in - - ()
Sea Level Pressure  
Sea Level Pressure 30.39 in    
Wind  
Wind Speed 10 mph (NE)    
Max Wind Speed 17 mph    
Max Gust Speed 24 mph    
Visibility 10 miles    
Events Thunderstorm    
Averages and records for this station are not official NWS values.
T = Trace of Precipitation, MM = Missing Value Source: NWS Daily Summary

Daily Weather History Graph

Daily Weather History Graph

Search for Another Location

Airport or City:

Trip Planner

Search our weather history database for the weather conditions in past years. The results will help you decide how hot, cold, wet, or windy it might be!

Date:

Astronomy

Nov. 14, 2012 Rise Set
Actual Time 6:58 AM EST 5:19 PM EST
Civil Twilight 6:31 AM EST 5:46 PM EST
Nautical Twilight 6:01 AM EST 6:17 PM EST
Astronomical Twilight 5:31 AM EST 6:47 PM EST
Moon 7:43 AM EST (11/14) 6:09 PM EST (11/14)
Length of Visible Light 11h 15m
Length of Day
10h 21m
New Moon, 1% of the Moon is Illuminated
Nov 14
New Moon
Nov 20
First Quarter
Nov 28
Full
Dec 6
Last Quarter
Dec 13
New

Hourly Weather History & Observations

Time (EST) Temp. Windchill Dew Point Humidity Pressure Visibility Wind Dir Wind Speed Gust Speed Precip Events Conditions
12:15 AM 39.2 °F 33.6 °F 33.8 °F 81% 30.38 in 10.0 mi NE 8.1 mph - N/A   Clear
12:35 AM 41.0 °F 35.2 °F 32.0 °F 70% 30.38 in 10.0 mi NNE 9.2 mph - N/A   Clear
12:55 AM 41.0 °F 35.2 °F 32.0 °F 70% 30.38 in 10.0 mi NNE 9.2 mph - N/A   Clear
1:15 AM 41.0 °F 35.2 °F 32.0 °F 70% 30.38 in 10.0 mi NNE 9.2 mph - N/A   Clear
1:35 AM 39.2 °F 33.0 °F 32.0 °F 75% 30.37 in 10.0 mi NNE 9.2 mph - N/A   Clear
1:55 AM 39.2 °F 33.0 °F 32.0 °F 75% 30.37 in 10.0 mi NNE 9.2 mph - N/A   Clear
2:15 AM 39.2 °F 33.0 °F 33.8 °F 81% 30.37 in 10.0 mi NNE 9.2 mph - N/A   Clear
2:35 AM 39.2 °F 34.2 °F 33.8 °F 81% 30.38 in 10.0 mi NNE 6.9 mph - N/A   Clear
2:55 AM 37.4 °F 32.8 °F 33.8 °F 87% 30.39 in 10.0 mi NNE 5.8 mph - N/A   Clear
3:15 AM 37.4 °F 32.1 °F 33.8 °F 87% 30.39 in 10.0 mi NE 6.9 mph - N/A   Clear
3:35 AM 37.4 °F 32.1 °F 33.8 °F 87% 30.39 in 10.0 mi NNE 6.9 mph - N/A   Scattered Clouds
3:55 AM 37.4 °F 31.4 °F 33.8 °F 87% 30.39 in 10.0 mi NE 8.1 mph - N/A   Scattered Clouds
4:15 AM 37.4 °F 31.4 °F 33.8 °F 87% 30.39 in 10.0 mi NNE 8.1 mph - N/A   Scattered Clouds
4:55 AM 37.4 °F 31.4 °F 33.8 °F 87% 30.40 in 10.0 mi NNE 8.1 mph - N/A   Clear
5:15 AM 37.4 °F 30.8 °F 33.8 °F 87% 30.40 in 10.0 mi NNE 9.2 mph - N/A   Clear
5:35 AM 37.4 °F 29.3 °F 33.8 °F 87% 30.41 in 10.0 mi NNE 12.7 mph 17.3 mph N/A   Clear
5:55 AM 37.4 °F 29.8 °F 33.8 °F 87% 30.42 in 10.0 mi NE 11.5 mph - N/A   Clear
6:15 AM 37.4 °F 29.8 °F 33.8 °F 87% 30.43 in 10.0 mi NE 11.5 mph - N/A   Clear
6:35 AM 35.6 °F 28.0 °F 32.0 °F 87% 30.43 in 10.0 mi NNE 10.4 mph - N/A   Clear
6:55 AM 35.6 °F 28.6 °F 32.0 °F 87% 30.44 in 10.0 mi NNE 9.2 mph - N/A   Clear
7:15 AM 35.6 °F 29.2 °F 32.0 °F 87% 30.44 in 10.0 mi NNE 8.1 mph - N/A   Clear
7:35 AM 37.4 °F 30.3 °F 32.0 °F 81% 30.45 in 10.0 mi NNE 10.4 mph - N/A   Clear
7:55 AM 37.4 °F 29.3 °F 32.0 °F 81% 30.45 in 10.0 mi NNE 12.7 mph 18.4 mph N/A   Clear
8:15 AM 39.2 °F 31.6 °F 32.0 °F 75% 30.45 in 10.0 mi NE 12.7 mph 16.1 mph N/A   Clear
8:35 AM 41.0 °F 33.1 °F 32.0 °F 70% 30.46 in 10.0 mi NNE 15.0 mph 20.7 mph N/A   Clear
8:55 AM 41.0 °F 33.5 °F 32.0 °F 70% 30.47 in 10.0 mi NE 13.8 mph 20.7 mph N/A Thunderstorm Clear
9:15 AM 42.8 °F 35.4 °F 32.0 °F 66% 30.47 in 10.0 mi NE 15.0 mph 20.7 mph N/A   Clear
9:35 AM 42.8 °F 35.4 °F 32.0 °F 66% 30.47 in 10.0 mi NE 15.0 mph 24.2 mph N/A   Clear
9:55 AM 44.6 °F 37.4 °F 32.0 °F 61% 30.46 in 10.0 mi NNE 16.1 mph 21.9 mph N/A   Clear
10:15 AM 44.6 °F 37.4 °F 32.0 °F 61% 30.46 in 10.0 mi NE 16.1 mph - N/A   Clear
10:35 AM 46.4 °F 40.1 °F 32.0 °F 57% 30.46 in 10.0 mi NE 15.0 mph 20.7 mph N/A   Clear
10:55 AM 46.4 °F 39.5 °F 32.0 °F 57% 30.46 in 10.0 mi NNE 17.3 mph - N/A Thunderstorm Clear
11:15 AM 48.2 °F - 32.0 °F 54% 30.45 in 10.0 mi NNE 16.1 mph - N/A   Clear
11:35 AM 50.0 °F - 32.0 °F 50% 30.44 in 10.0 mi NNE 15.0 mph 19.6 mph N/A   Scattered Clouds
11:55 AM 50.0 °F - 32.0 °F 50% 30.42 in 10.0 mi NE 11.5 mph 19.6 mph N/A   Scattered Clouds
12:15 PM 50.0 °F - 32.0 °F 50% 30.41 in 10.0 mi NNE 11.5 mph 18.4 mph N/A   Clear
12:35 PM 51.8 °F - 32.0 °F 47% 30.40 in 10.0 mi NNE 11.5 mph 19.6 mph N/A   Clear
12:55 PM 51.8 °F - 30.2 °F 44% 30.39 in 7.0 mi NNE 13.8 mph 18.4 mph N/A   Clear
1:15 PM 51.8 °F - 30.2 °F 44% 30.37 in 7.0 mi NNE 16.1 mph - N/A   Clear
1:55 PM 53.6 °F - 30.2 °F 41% 30.37 in 10.0 mi North 6.9 mph - N/A   Clear
2:15 PM 53.6 °F - 32.0 °F 44% 30.37 in 10.0 mi NE 5.8 mph - N/A   Mostly Cloudy
2:35 PM 53.6 °F - 30.2 °F 41% 30.35 in 10.0 mi NE 8.1 mph 16.1 mph N/A Thunderstorm Mostly Cloudy
2:55 PM 53.6 °F - 30.2 °F 41% 30.34 in 10.0 mi NE 11.5 mph 17.3 mph N/A   Scattered Clouds
3:15 PM 53.6 °F - 32.0 °F 44% 30.34 in 10.0 mi East 8.1 mph - N/A Thunderstorm Scattered Clouds
3:35 PM 53.6 °F - 32.0 °F 44% 30.33 in 10.0 mi NE 10.4 mph - N/A   Mostly Cloudy
3:55 PM 51.8 °F - 32.0 °F 47% 30.33 in 10.0 mi NE 11.5 mph - N/A   Mostly Cloudy
4:15 PM 51.8 °F - 32.0 °F 47% 30.34 in 10.0 mi ENE 9.2 mph - N/A   Clear
4:35 PM 51.8 °F - 32.0 °F 47% 30.34 in 10.0 mi NE 10.4 mph - N/A   Scattered Clouds
4:55 PM 51.8 °F - 32.0 °F 47% 30.34 in 10.0 mi NE 6.9 mph - N/A   Mostly Cloudy
5:15 PM 50.0 °F - 32.0 °F 50% 30.34 in 10.0 mi NE 5.8 mph - N/A   Overcast
5:35 PM 50.0 °F - 32.0 °F 50% 30.34 in 10.0 mi ENE 5.8 mph - N/A   Overcast
5:55 PM 50.0 °F - 32.0 °F 50% 30.35 in 10.0 mi ENE 4.6 mph - N/A   Overcast
6:15 PM 50.0 °F - 32.0 °F 50% 30.35 in 10.0 mi ENE 5.8 mph - N/A   Overcast
6:35 PM 50.0 °F - 32.0 °F 50% 30.35 in 10.0 mi ENE 5.8 mph - N/A   Overcast
6:55 PM 50.0 °F - 32.0 °F 50% 30.36 in 10.0 mi ENE 6.9 mph - N/A   Overcast
7:15 PM 50.0 °F - 32.0 °F 50% 30.36 in 10.0 mi ENE 5.8 mph 16.1 mph N/A   Overcast
7:35 PM 48.2 °F - 32.0 °F 54% 30.38 in 10.0 mi NE 4.6 mph - N/A   Overcast
7:55 PM 48.2 °F - 32.0 °F 54% 30.38 in 10.0 mi NNE 3.5 mph - N/A   Overcast
8:15 PM 48.2 °F - 32.0 °F 54% 30.37 in 10.0 mi NE 10.4 mph - N/A   Overcast
8:35 PM 48.2 °F - 32.0 °F 54% 30.38 in 10.0 mi NE 8.1 mph - N/A   Mostly Cloudy
8:55 PM 48.2 °F - 32.0 °F 54% 30.37 in 10.0 mi NE 9.2 mph - N/A   Overcast
9:15 PM 48.2 °F - 32.0 °F 54% 30.37 in 10.0 mi ENE 8.1 mph - N/A   Overcast
9:35 PM 46.4 °F 41.5 °F 32.0 °F 57% 30.36 in 10.0 mi NE 10.4 mph - N/A   Overcast
9:55 PM 46.4 °F 43.5 °F 32.0 °F 57% 30.36 in 10.0 mi NNE 5.8 mph - N/A   Mostly Cloudy
10:15 PM 46.4 °F 42.4 °F 32.0 °F 57% 30.36 in 10.0 mi NNE 8.1 mph - N/A   Mostly Cloudy
10:35 PM 46.4 °F 40.1 °F 33.8 °F 62% 30.33 in 10.0 mi NE 15.0 mph - N/A   Overcast
10:55 PM 46.4 °F 41.9 °F 32.0 °F 57% 30.34 in 10.0 mi NE 9.2 mph 18.4 mph N/A   Scattered Clouds
11:15 PM 46.4 °F 42.4 °F 32.0 °F 57% 30.34 in 10.0 mi NE 8.1 mph - N/A   Scattered Clouds
11:35 PM 44.6 °F 39.2 °F 32.0 °F 61% 30.33 in 10.0 mi NE 10.4 mph - N/A   Mostly Cloudy
11:55 PM 44.6 °F 40.2 °F 32.0 °F 61% 30.33 in 10.0 mi NNE 8.1 mph - N/A   Mostly Cloudy